Weather History for K1A6 - January, 2012

Change the Weather History Date:

Thursday, January 26, 2012

  Actual Average (KLOZ) Record (KLOZ)
Temperature  
Mean Temperature 55 °F 36 °F  
Max Temperature 62 °F 45 °F 71 °F (1962)
Min Temperature 48 °F 26 °F 3 °F (1987)
Degree Days  
Heating Degree Days 10 29  
Month to date heating degree days 771  
Since 1 July heating degree days 2423  
Cooling Degree Days 0 0  
Month to date cooling degree days 0  
Year to date cooling degree days 0  
Growing Degree Days 5 (Base 50)    
Moisture  
Dew Point 51 °F    
Average Humidity 90    
Maximum Humidity 100    
Minimum Humidity 72    
Precipitation  
Precipitation 0.30 in 0.11 in 0.74 in (1967)
Month to date precipitation 2.95  
Year to date precipitation 2.95  
Sea Level Pressure  
Sea Level Pressure 29.90 in    
Wind  
Wind Speed 3 mph (South)    
Max Wind Speed 17 mph    
Max Gust Speed 29 mph    
Visibility 8 miles    
Events Rain    
T = Trace of Precipitation, MM = Missing Value Source: NWS Daily Summary

Daily Weather History Graph

Daily Weather History Graph

Search for Another Location

Airport or City:

Trip Planner

Search our weather history database for the weather conditions in past years. The results will help you decide how hot, cold, wet, or windy it might be!

Date:

Astronomy

Jan. 26, 2012 Rise Set
Actual Time 6:41 AM CST 4:53 PM CST
Civil Twilight 6:13 AM CST 5:21 PM CST
Nautical Twilight 5:42 AM CST 5:52 PM CST
Astronomical Twilight 5:11 AM CST 6:23 PM CST
Moon 8:15 AM CST (1/26) 8:37 PM CST (1/26)
Length of Visible Light 11h 07m
Length of Day
10h 12m
Waxing Crescent, 12% of the Moon is Illuminated
Jan 26
Waxing Crescent
Jan 30
First Quarter
Feb 7
Full
Feb 14
Last Quarter
Feb 21
New

Hourly Weather History & Observations

Time (CST) Temp. Dew Point Humidity Pressure Visibility Wind Dir Wind Speed Gust Speed Precip Events Conditions
12:15 AM 48.2 °F 44.6 °F 87% 30.05 in 7.0 mi Calm Calm - N/A   Overcast
12:35 AM 48.2 °F 44.6 °F 87% 30.04 in 7.0 mi Calm Calm - N/A   Overcast
12:55 AM 48.2 °F 46.4 °F 93% 30.04 in 7.0 mi Calm Calm - N/A   Overcast
1:15 AM 50.0 °F 46.4 °F 87% 30.03 in 7.0 mi Calm Calm - N/A   Overcast
1:35 AM 50.0 °F 46.4 °F 87% 30.03 in 10.0 mi Calm Calm - N/A   Overcast
1:55 AM 48.2 °F 46.4 °F 93% 30.02 in 10.0 mi Calm Calm - N/A   Mostly Cloudy
2:15 AM 48.2 °F 46.4 °F 93% 30.03 in 10.0 mi Calm Calm - N/A   Scattered Clouds
2:35 AM 48.2 °F 44.6 °F 87% 30.02 in 10.0 mi ESE 3.5 mph - N/A   Scattered Clouds
2:55 AM 48.2 °F 44.6 °F 87% 30.01 in 10.0 mi NW 4.6 mph - N/A   Scattered Clouds
3:15 AM 48.2 °F 44.6 °F 87% 30.00 in 10.0 mi Calm Calm - N/A   Scattered Clouds
3:35 AM 48.2 °F 44.6 °F 87% 29.99 in 10.0 mi Calm Calm - N/A   Scattered Clouds
3:55 AM 48.2 °F 44.6 °F 87% 29.99 in 1.0 mi Calm Calm - N/A   Mostly Cloudy
4:15 AM 48.2 °F 44.6 °F 87% 29.98 in 10.0 mi Calm Calm - N/A   Mostly Cloudy
4:35 AM 48.2 °F 44.6 °F 87% 29.98 in 10.0 mi Calm Calm - N/A   Mostly Cloudy
4:55 AM 48.2 °F 44.6 °F 87% 29.97 in 10.0 mi Calm Calm - N/A   Mostly Cloudy
5:15 AM 48.2 °F 44.6 °F 87% 29.97 in 10.0 mi Calm Calm - N/A   Scattered Clouds
5:35 AM 48.2 °F 44.6 °F 87% 29.96 in 10.0 mi Calm Calm - N/A   Clear
5:55 AM 48.2 °F 44.6 °F 87% 29.96 in 10.0 mi Calm Calm - N/A   Clear
6:15 AM 48.2 °F 44.6 °F 87% 29.96 in 10.0 mi Calm Calm - N/A   Clear
6:35 AM 48.2 °F 44.6 °F 87% 29.95 in 10.0 mi Calm Calm - N/A   Scattered Clouds
6:55 AM 48.2 °F 44.6 °F 87% 29.95 in 10.0 mi Calm Calm - N/A   Overcast
7:15 AM 51.8 °F 46.4 °F 82% 29.95 in 10.0 mi SSE 3.5 mph - N/A   Overcast
7:35 AM 51.8 °F 48.2 °F 88% 29.94 in 10.0 mi Calm Calm - N/A   Overcast
7:55 AM 57.2 °F 48.2 °F 72% 29.95 in 10.0 mi South 6.9 mph - N/A Rain Light Rain
8:15 AM 57.2 °F 48.2 °F 72% 29.95 in 10.0 mi SSW 10.4 mph 16.1 mph N/A   Overcast
8:35 AM 60.8 °F 51.8 °F 72% 29.94 in 10.0 mi South 12.7 mph 19.6 mph N/A   Overcast
8:55 AM 60.8 °F 53.6 °F 77% 29.94 in 10.0 mi South 9.2 mph 18.4 mph N/A   Overcast
9:15 AM 60.8 °F 55.4 °F 82% 29.93 in 7.0 mi South 9.2 mph 17.3 mph N/A Rain Heavy Rain
9:35 AM 60.8 °F 57.2 °F 88% 29.94 in 5.0 mi South 9.2 mph 20.7 mph 0.03 in Rain Rain
9:55 AM 60.8 °F 57.2 °F 88% 29.93 in 4.0 mi SSW 10.4 mph 16.1 mph 0.01 in Rain Rain
10:15 AM 60.8 °F 57.2 °F 88% 29.92 in 10.0 mi SSW 17.3 mph 24.2 mph 0.01 in   Light Drizzle
10:35 AM 62.6 °F 57.2 °F 82% 29.91 in 10.0 mi SSW 15.0 mph 28.8 mph 0.01 in   Overcast
10:55 AM 60.8 °F 57.2 °F 88% 29.90 in 5.0 mi SSW 12.7 mph 21.9 mph N/A Rain Light Rain
11:15 AM 60.8 °F 57.2 °F 88% 29.89 in 7.0 mi SSW 9.2 mph 16.1 mph N/A Rain Rain
11:35 AM 60.8 °F 59.0 °F 94% 29.87 in 4.0 mi South 6.9 mph - N/A Rain Light Rain
11:55 AM 59.0 °F 57.2 °F 94% 29.86 in 4.0 mi South 9.2 mph - N/A   Heavy Drizzle
12:15 PM 57.2 °F 57.2 °F 100% 29.85 in 7.0 mi South 8.1 mph - 0.01 in Rain Light Rain
12:35 PM 57.2 °F 57.2 °F 100% 29.84 in 4.0 mi South 8.1 mph - 0.02 in Rain Rain
12:55 PM 59.0 °F 57.2 °F 94% 29.83 in 5.0 mi South 6.9 mph - N/A Rain Heavy Rain
1:15 PM 57.2 °F 57.2 °F 100% 29.82 in 4.0 mi SSE 5.8 mph - N/A Rain Heavy Rain
1:35 PM 57.2 °F 55.4 °F 94% 29.82 in 5.0 mi SE 3.5 mph - 0.01 in Rain Rain
1:55 PM 57.2 °F 55.4 °F 94% 29.81 in 1.8 mi Calm Calm - 0.05 in Rain Heavy Rain
2:15 PM 55.4 °F 55.4 °F 100% 29.81 in 10.0 mi SSE 4.6 mph - 0.05 in Rain Light Rain
2:35 PM 57.2 °F 55.4 °F 94% 29.80 in 10.0 mi SSE 4.6 mph - 0.07 in Rain Light Rain
2:55 PM 57.2 °F 57.2 °F 100% 29.79 in 7.0 mi SE 3.5 mph - N/A Rain Light Rain
3:15 PM 57.2 °F 57.2 °F 100% 29.78 in 7.0 mi South 5.8 mph - N/A Rain Rain
3:35 PM 57.2 °F 57.2 °F 100% 29.77 in 5.0 mi SE 4.6 mph - 0.01 in Rain Rain
3:55 PM 57.2 °F 55.4 °F 94% 29.76 in 5.0 mi SE 3.5 mph - 0.02 in Rain Rain
4:15 PM 57.2 °F 55.4 °F 94% 29.75 in 4.0 mi Calm Calm - 0.05 in Rain Rain
4:35 PM 57.2 °F 55.4 °F 94% 29.75 in 7.0 mi SSE 3.5 mph - 0.09 in Rain Rain
4:55 PM 57.2 °F 55.4 °F 94% 29.73 in 7.0 mi SE 3.5 mph - 0.01 in Rain Rain
5:15 PM 57.2 °F 55.4 °F 94% 29.72 in 10.0 mi Calm Calm - 0.01 in Rain Light Rain
5:35 PM 55.4 °F 55.4 °F 100% 29.70 in 7.0 mi Calm Calm - 0.01 in Rain Light Rain
5:55 PM 57.2 °F 55.4 °F 94% 29.68 in 7.0 mi Calm Calm - N/A   Drizzle
6:15 PM 57.2 °F 55.4 °F 94% 29.68 in 10.0 mi Calm Calm - N/A Rain Light Rain
6:35 PM 57.2 °F 55.4 °F 94% 29.67 in 7.0 mi Calm Calm - N/A Rain Rain
6:55 PM 55.4 °F 55.4 °F 100% 29.65 in 7.0 mi West 3.5 mph - N/A   Overcast
7:15 PM 55.4 °F 55.4 °F 100% 29.63 in 5.0 mi Calm Calm - N/A   Mostly Cloudy
8:35 PM 55.4 °F 53.6 °F 94% 29.59 in 2.5 mi North - - N/A Rain Light Rain
9:15 PM 55.4 °F 55.4 °F 100% 29.57 in 2.0 mi Calm Calm - 0.08 in Rain Heavy Rain
9:35 PM 55.4 °F 55.4 °F 100% 29.57 in 1.8 mi Calm Calm - 0.20 in Rain Heavy Rain
9:55 PM 55.4 °F 55.4 °F 100% 29.56 in 2.5 mi Calm Calm - 0.03 in Rain Heavy Rain
10:15 PM 57.2 °F 57.2 °F 100% 29.57 in 4.0 mi SSW 13.8 mph 25.3 mph 0.22 in Rain Rain
10:35 PM 60.8 °F 59.0 °F 94% 29.57 in 10.0 mi South 10.4 mph 17.3 mph 0.23 in Rain Light Rain
10:55 PM 60.8 °F 59.0 °F 94% 29.57 in 10.0 mi South 9.2 mph 18.4 mph N/A   Mostly Cloudy
11:15 PM 60.8 °F 59.0 °F 94% 29.57 in 1.0 mi SSW 5.8 mph 18.4 mph N/A   Scattered Clouds
11:35 PM 60.8 °F 59.0 °F 94% 29.57 in 1.0 mi SW 4.6 mph - N/A Rain Rain
11:55 PM 57.2 °F 53.6 °F 88% 29.58 in 7.0 mi West 13.8 mph 27.6 mph 0.02 in Rain Light Rain